67.1°F
Current conditions from King Hill
Updated every 5 minutes
 
  Sunday August 31, 2014

Station Historical Data
Daily Summary for January 17, 2012 Units:  Metric    English   Both
« Previous Day
Next Day »
Daily Weekly Monthly Yearly Custom
  High: Low: Average:
Temperature: 4.8 °C -2.9 °C -0.1 °C
Dew Point: 3.2 °C -9 °C -2.4 °C
Humidity: 94% 63% 84%
Wind Speed: 24.1km/h 1.6km/h 11.7km/h
Wind Gust: 43.5km/h - -
Wind- - SSW
Pressure: 1014.8 hPa 989.1 hPa -
Precipitation: 0 mm    
Historical Graphs
 
 
Tabular Data for January 17, 2012
Time Temperature Dew Point Pressure Wind Wind Speed Wind Gust Humidity Daily Rainfall
00:00 -2.9 °C -9 °C 1014.8 hPa SSW 17.7 km/h 38.6 km/h 63% 0 mm
00:10 -2.9 °C -8.8 °C 1014.8 hPa SSW 12.9 km/h 33.8 km/h 64% 0 mm
00:15 -2.9 °C -8.8 °C 1014.8 hPa SW 14.5 km/h 27.4 km/h 64% 0 mm
00:20 -2.9 °C -8.6 °C 1014.8 hPa SSW 9.7 km/h 25.7 km/h 65% 0 mm
00:25 -2.9 °C -8.6 °C 1014.8 hPa SSW 16.1 km/h 35.4 km/h 65% 0 mm
00:30 -2.9 °C -8.4 °C 1014.8 hPa SSW 9.7 km/h 35.4 km/h 66% 0 mm
00:35 -2.9 °C -8.4 °C 1014.8 hPa SSW 16.1 km/h 33.8 km/h 66% 0 mm
00:40 -2.9 °C -8.2 °C 1014.8 hPa SSW 11.3 km/h 33.8 km/h 67% 0 mm
00:45 -2.9 °C -8 °C 1014.8 hPa SSW 12.9 km/h 30.6 km/h 68% 0 mm
00:55 -2.9 °C -7.8 °C 1014.4 hPa SSW 12.9 km/h 27.4 km/h 69% 0 mm
01:00 -2.9 °C -7.7 °C 1014.4 hPa SSW 12.9 km/h 33.8 km/h 70% 0 mm
01:10 -2.9 °C -7.3 °C 1014.1 hPa SSW 17.7 km/h 33.8 km/h 72% 0 mm
01:15 -2.9 °C -7.1 °C 1014.1 hPa SSW 12.9 km/h 29 km/h 73% 0 mm
01:20 -2.9 °C -6.9 °C 1014.1 hPa SSW 17.7 km/h 30.6 km/h 74% 0 mm
01:25 -2.9 °C -6.8 °C 1014.1 hPa SSW 17.7 km/h 30.6 km/h 75% 0 mm
01:30 -2.9 °C -6.8 °C 1014.1 hPa SSW 12.9 km/h 30.6 km/h 75% 0 mm
01:35 -2.9 °C -6.8 °C 1014.1 hPa SSW 9.7 km/h 27.4 km/h 75% 0 mm
01:40 -2.9 °C -6.7 °C 1014.1 hPa SSW 14.5 km/h 27.4 km/h 75% 0 mm
01:50 -2.8 °C -6.4 °C 1013.8 hPa SSW 11.3 km/h 33.8 km/h 76% 0 mm
01:55 -2.8 °C -6.4 °C 1013.8 hPa SSW 12.9 km/h 25.7 km/h 76% 0 mm
02:00 -2.8 °C -6.4 °C 1013.8 hPa SSW 11.3 km/h 25.7 km/h 76% 0 mm
02:05 -2.8 °C -6.3 °C 1013.8 hPa SSW 9.7 km/h 25.7 km/h 77% 0 mm
02:10 -2.8 °C -6.2 °C 1013.8 hPa SSW 9.7 km/h 24.1 km/h 77% 0 mm
02:15 -2.8 °C -6.2 °C 1013.8 hPa SSW 12.9 km/h 27.4 km/h 77% 0 mm
02:20 -2.7 °C -6 °C 1013.8 hPa SSW 16.1 km/h 27.4 km/h 78% 0 mm
02:25 -2.7 °C -6 °C 1013.8 hPa SSW 12.9 km/h 30.6 km/h 78% 0 mm
02:35 -2.7 °C -6 °C 1013.4 hPa SSW 12.9 km/h 32.2 km/h 78% 0 mm
02:40 -2.7 °C -6 °C 1013.4 hPa SSW 11.3 km/h 27.4 km/h 78% 0 mm
02:45 -2.7 °C -5.8 °C 1013.4 hPa SSW 12.9 km/h 27.4 km/h 79% 0 mm
02:55 -2.7 °C -5.8 °C 1013.4 hPa SSW 11.3 km/h 27.4 km/h 79% 0 mm
03:00 -2.7 °C -5.8 °C 1013.4 hPa SSW 14.5 km/h 25.7 km/h 79% 0 mm
03:05 -2.6 °C -5.7 °C 1013.4 hPa SSW 11.3 km/h 25.7 km/h 79% 0 mm
03:10 -2.6 °C -5.7 °C 1013.4 hPa SSW 11.3 km/h 33.8 km/h 79% 0 mm
03:15 -2.6 °C -5.7 °C 1013.4 hPa SSW 9.7 km/h 33.8 km/h 79% 0 mm
03:20 -2.6 °C -5.7 °C 1013.1 hPa SSW 12.9 km/h 25.7 km/h 79% 0 mm
03:30 -2.5 °C -5.5 °C 1013.1 hPa SSW 12.9 km/h 27.4 km/h 80% 0 mm
03:35 -2.5 °C -5.5 °C 1013.1 hPa SSW 16.1 km/h 27.4 km/h 80% 0 mm
03:40 -2.5 °C -5.5 °C 1013.1 hPa SSW 14.5 km/h 27.4 km/h 80% 0 mm
03:50 -2.4 °C -5.4 °C 1013.1 hPa SSW 11.3 km/h 27.4 km/h 80% 0 mm
03:55 -2.3 °C -5.3 °C 1012.8 hPa SSW 17.7 km/h 29 km/h 80% 0 mm
04:00 -2.3 °C -5.3 °C 1012.8 hPa SSW 12.9 km/h 29 km/h 80% 0 mm
04:05 -2.3 °C -5.5 °C 1012.8 hPa SSW 16.1 km/h 27.4 km/h 79% 0 mm
04:10 -2.3 °C -5.4 °C 1012.4 hPa SSW 14.5 km/h 27.4 km/h 79% 0 mm
04:15 -2.3 °C -5.4 °C 1012.4 hPa SSW 9.7 km/h 29 km/h 79% 0 mm
04:20 -2.2 °C -5.4 °C 1012.4 hPa SSW 16.1 km/h 29 km/h 79% 0 mm
04:25 -2.2 °C -5.2 °C 1012.4 hPa SSW 14.5 km/h 27.4 km/h 80% 0 mm
04:30 -2.2 °C -5.2 °C 1012.4 hPa SSW 16.1 km/h 32.2 km/h 80% 0 mm
04:40 -2.3 °C -5.1 °C 1012.1 hPa SSW 14.5 km/h 35.4 km/h 81% 0 mm
04:45 -2.3 °C -5.1 °C 1012.1 hPa SSW 14.5 km/h 33.8 km/h 81% 0 mm
04:50 -2.3 °C -4.9 °C 1012.1 hPa SSW 16.1 km/h 32.2 km/h 82% 0 mm
05:00 -2.3 °C -5 °C 1012.1 hPa SSW 20.9 km/h 37 km/h 82% 0 mm
05:05 -2.3 °C -4.8 °C 1012.1 hPa SSW 17.7 km/h 37 km/h 83% 0 mm
05:10 -2.4 °C -4.9 °C 1011.7 hPa SSW 12.9 km/h 38.6 km/h 83% 0 mm
05:15 -2.4 °C -4.9 °C 1011.7 hPa SSW 16.1 km/h 38.6 km/h 83% 0 mm
05:20 -2.3 °C -4.8 °C 1011.7 hPa SSW 14.5 km/h 35.4 km/h 83% 0 mm
05:25 -2.3 °C -4.8 °C 1011.7 hPa SSW 16.1 km/h 30.6 km/h 83% 0 mm
05:35 -2.3 °C -4.8 °C 1011.7 hPa SSW 14.5 km/h 29 km/h 83% 0 mm
05:40 -2.3 °C -4.8 °C 1011.7 hPa SW 16.1 km/h 30.6 km/h 83% 0 mm
05:45 -2.3 °C -4.8 °C 1011.4 hPa SSW 11.3 km/h 30.6 km/h 83% 0 mm
05:50 -2.3 °C -4.8 °C 1011.4 hPa SSW 14.5 km/h 25.7 km/h 83% 0 mm
06:00 -2.2 °C -4.7 °C 1011.4 hPa SSW 14.5 km/h 25.7 km/h 83% 0 mm
06:05 -2.1 °C -4.6 °C 1011.4 hPa SSW 12.9 km/h 27.4 km/h 83% 0 mm
06:10 -2.1 °C -4.7 °C 1011.1 hPa SSW 12.9 km/h 27.4 km/h 82% 0 mm
06:15 -1.9 °C -4.8 °C 1011.4 hPa SW 12.9 km/h 25.7 km/h 81% 0 mm
06:20 -1.9 °C -4.7 °C 1011.4 hPa SSW 11.3 km/h 25.7 km/h 81% 0 mm
06:25 -1.9 °C -4.7 °C 1011.4 hPa SSW 14.5 km/h 24.1 km/h 81% 0 mm
06:30 -1.8 °C -4.7 °C 1011.4 hPa SSW 11.3 km/h 24.1 km/h 81% 0 mm
06:40 -1.8 °C -4.6 °C 1011.4 hPa SSW 11.3 km/h 29 km/h 81% 0 mm
06:45 -1.7 °C -4.6 °C 1011.4 hPa SSW 12.9 km/h 27.4 km/h 81% 0 mm
06:50 -1.7 °C -4.5 °C 1011.4 hPa SW 14.5 km/h 27.4 km/h 81% 0 mm
07:00 -1.7 °C -4.3 °C 1011.1 hPa SW 19.3 km/h 30.6 km/h 82% 0 mm
07:05 -1.7 °C -4.4 °C 1011.4 hPa SSW 11.3 km/h 30.6 km/h 82% 0 mm
07:10 -1.7 °C -4.2 °C 1011.4 hPa SSW 12.9 km/h 24.1 km/h 83% 0 mm
07:15 -1.7 °C -4.2 °C 1011.4 hPa SSW 12.9 km/h 24.1 km/h 83% 0 mm
07:20 -1.7 °C -4.2 °C 1011.4 hPa SSW 14.5 km/h 29 km/h 83% 0 mm
07:25 -1.7 °C -4.2 °C 1011.1 hPa SSW 12.9 km/h 29 km/h 83% 0 mm
07:35 -1.6 °C -4.1 °C 1011.1 hPa SSW 12.9 km/h 30.6 km/h 83% 0 mm
07:40 -1.6 °C -4.1 °C 1011.1 hPa SSW 11.3 km/h 30.6 km/h 83% 0 mm
07:45 -1.6 °C -4.1 °C 1011.1 hPa SSW 14.5 km/h 29 km/h 83% 0 mm
07:50 -1.6 °C -3.9 °C 1011.1 hPa SSW 16.1 km/h 29 km/h 84% 0 mm
08:00 -1.7 °C -3.8 °C 1010.7 hPa SSW 12.9 km/h 22.5 km/h 85% 0 mm
08:05 -1.7 °C -3.8 °C 1010.7 hPa SSW 11.3 km/h 22.5 km/h 85% 0 mm
08:10 -1.6 °C -3.8 °C 1010.7 hPa SSW 12.9 km/h 22.5 km/h 85% 0 mm
08:15 -1.6 °C -3.7 °C 1010.7 hPa SSW 8 km/h 22.5 km/h 85% 0 mm
08:20 -1.6 °C -3.7 °C 1010.7 hPa SSW 9.7 km/h 22.5 km/h 85% 0 mm
08:25 -1.5 °C -3.7 °C 1010.4 hPa SSW 11.3 km/h 20.9 km/h 85% 0 mm
08:30 -1.4 °C -3.6 °C 1010.4 hPa SSW 11.3 km/h 20.9 km/h 85% 0 mm
08:40 -1.3 °C -3.6 °C 1010.4 hPa SSW 11.3 km/h 19.3 km/h 85% 0 mm
08:45 -1.3 °C -3.5 °C 1010 hPa SSW 11.3 km/h 22.5 km/h 85% 0 mm
08:50 -1.2 °C -3.4 °C 1010 hPa SSW 11.3 km/h 22.5 km/h 85% 0 mm
09:00 -1.1 °C -3.4 °C 1009.7 hPa SSW 9.7 km/h 20.9 km/h 84% 0 mm
09:05 -1 °C -3.3 °C 1009.7 hPa SSW 12.9 km/h 20.9 km/h 84% 0 mm
09:10 -0.9 °C -3.3 °C 1009.7 hPa SSW 11.3 km/h 22.5 km/h 84% 0 mm
09:15 -0.8 °C -3.2 °C 1009.7 hPa SSW 9.7 km/h 22.5 km/h 84% 0 mm
09:20 -0.7 °C -3.2 °C 1010 hPa SSW 16.1 km/h 29 km/h 83% 0 mm
09:25 -0.7 °C -3.2 °C 1010 hPa SSW 14.5 km/h 30.6 km/h 83% 0 mm
09:30 -0.6 °C -3.2 °C 1010.4 hPa SSW 12.9 km/h 30.6 km/h 83% 0 mm
09:35 -0.6 °C -3.1 °C 1010.4 hPa SSW 14.5 km/h 29 km/h 83% 0 mm
09:40 -0.5 °C -3.1 °C 1010 hPa SSW 9.7 km/h 29 km/h 83% 0 mm
09:45 -0.5 °C -3.1 °C 1010 hPa SSW 9.7 km/h 19.3 km/h 83% 0 mm
09:50 -0.4 °C -3.2 °C 1010 hPa SSW 12.9 km/h 22.5 km/h 82% 0 mm
10:00 -0.3 °C -3.1 °C 1010.4 hPa SSW 11.3 km/h 29 km/h 82% 0 mm
10:05 -0.3 °C -3 °C 1010.4 hPa SW 9.7 km/h 29 km/h 82% 0 mm
10:10 -0.3 °C -3 °C 1010 hPa SSW 11.3 km/h 24.1 km/h 82% 0 mm
10:20 -0.2 °C -2.9 °C 1009.7 hPa SSW 16.1 km/h 30.6 km/h 82% 0 mm
10:30 -0.1 °C -2.8 °C 1009.7 hPa SSW 9.7 km/h 25.7 km/h 82% 0 mm
10:40 0 °C -2.7 °C 1009.4 hPa SSW 11.3 km/h 24.1 km/h 82% 0 mm
10:50 0.2 °C -2.5 °C 1009 hPa SSW 8 km/h 22.5 km/h 82% 0 mm
10:55 0.3 °C -2.6 °C 1009 hPa SSW 9.7 km/h 20.9 km/h 81% 0 mm
11:00 0.3 °C -2.6 °C 1008.7 hPa SSW 8 km/h 17.7 km/h 81% 0 mm
11:05 0.3 °C -2.6 °C 1008.7 hPa SSW 9.7 km/h 17.7 km/h 81% 0 mm
11:10 0.3 °C -2.6 °C 1008.4 hPa SSW 6.4 km/h 16.1 km/h 81% 0 mm
11:15 0.3 °C -2.6 °C 1008.4 hPa SSW 8 km/h 17.7 km/h 81% 0 mm
11:20 0.4 °C -2.5 °C 1008.4 hPa SSW 8 km/h 17.7 km/h 81% 0 mm
11:25 0.4 °C -2.5 °C 1008 hPa SSW 6.4 km/h 16.1 km/h 81% 0 mm
11:30 0.5 °C -2.2 °C 1008 hPa SW 4.8 km/h 16.1 km/h 82% 0 mm
11:40 0.5 °C -2.2 °C 1007.7 hPa SW 3.2 km/h 12.9 km/h 82% 0 mm
11:45 0.6 °C -2.2 °C 1007.3 hPa SSW 8 km/h 14.5 km/h 82% 0 mm
11:50 0.6 °C -2.1 °C 1007.3 hPa SSW 3.2 km/h 14.5 km/h 82% 0 mm
11:55 0.7 °C -2 °C 1007.3 hPa South 6.4 km/h 12.9 km/h 82% 0 mm
12:00 0.7 °C -2 °C 1007 hPa SW 8 km/h 12.9 km/h 82% 0 mm
12:05 0.7 °C -2 °C 1007 hPa SSW 9.7 km/h 16.1 km/h 82% 0 mm
12:10 0.7 °C -2 °C 1007 hPa SSW 9.7 km/h 16.1 km/h 82% 0 mm
12:15 0.7 °C -2 °C 1006.7 hPa SSW 6.4 km/h 16.1 km/h 82% 0 mm
12:25 0.8 °C -1.9 °C 1006.7 hPa South 3.2 km/h 14.5 km/h 82% 0 mm
12:30 0.8 °C -1.9 °C 1006.3 hPa SSW 6.4 km/h 16.1 km/h 82% 0 mm
12:35 0.8 °C -1.9 °C 1006.3 hPa SSW 8 km/h 16.1 km/h 82% 0 mm
12:40 0.8 °C -1.8 °C 1006 hPa SSW 4.8 km/h 16.1 km/h 83% 0 mm
12:45 0.8 °C -1.7 °C 1005.6 hPa SSW 1.6 km/h 12.9 km/h 83% 0 mm
12:50 0.8 °C -1.7 °C 1005.6 hPa South 6.4 km/h 12.9 km/h 83% 0 mm
12:55 0.9 °C -1.7 °C 1005.6 hPa South 3.2 km/h 12.9 km/h 83% 0 mm
13:05 0.8 °C -1.6 °C 1005.3 hPa SSW 4.8 km/h 11.3 km/h 84% 0 mm
13:10 0.8 °C -1.6 °C 1005 hPa SSW 3.2 km/h 11.3 km/h 84% 0 mm
13:15 0.8 °C -1.6 °C 1004.6 hPa SSW 1.6 km/h 9.7 km/h 84% 0 mm
13:20 0.8 °C -1.4 °C 1004.6 hPa Calm   6.4 km/h 85% 0 mm
13:30 0.9 °C -1.3 °C 1004.3 hPa SSW 1.6 km/h 8 km/h 85% 0 mm
13:40 0.9 °C -1.3 °C 1003.9 hPa Calm   8 km/h 85% 0 mm
13:50 1 °C -1.2 °C 1003.9 hPa SSW 1.6 km/h 4.8 km/h 85% 0 mm
13:55 0.9 °C -1.3 °C 1003.6 hPa SSW 1.6 km/h 4.8 km/h 85% 0 mm
14:00 1 °C -1.1 °C 1003.6 hPa SSW 1.6 km/h 4.8 km/h 86% 0 mm
14:05 1 °C -1.1 °C 1003.3 hPa Calm   4.8 km/h 86% 0 mm
14:10 1.1 °C -1 °C 1003.3 hPa Calm   4.8 km/h 86% 0 mm
14:15 1.1 °C -0.9 °C 1002.9 hPa SSW 1.6 km/h 4.8 km/h 86% 0 mm
14:20 1.2 °C -0.9 °C 1002.9 hPa Calm   4.8 km/h 86% 0 mm
14:25 1.2 °C -0.8 °C 1002.6 hPa Calm   4.8 km/h 87% 0 mm
14:30 1.1 °C -1 °C 1002.6 hPa Calm   1.6 km/h 86% 0 mm
14:35 0.8 °C -1.2 °C 1002.3 hPa Calm   3.2 km/h 86% 0 mm
14:40 0.7 °C -1.4 °C 1002.3 hPa SSW 1.6 km/h 3.2 km/h 86% 0 mm
14:45 0.6 °C -1.3 °C 1001.9 hPa Calm   3.2 km/h 87% 0 mm
14:50 0.5 °C -1.4 °C 1001.9 hPa Calm   3.2 km/h 87% 0 mm
14:55 0.5 °C -1.4 °C 1001.9 hPa Calm     87% 0 mm
15:05 0.4 °C -1.3 °C 1001.6 hPa SSW 1.6 km/h 3.2 km/h 88% 0 mm
15:15 0.3 °C -1.4 °C 1001.2 hPa SSW 1.6 km/h 3.2 km/h 88% 0 mm
15:20 0.3 °C -1.4 °C 1001.2 hPa Calm   3.2 km/h 88% 0 mm
15:25 0.3 °C -1.3 °C 1000.9 hPa Calm   3.2 km/h 89% 0 mm
15:30 0.3 °C -1.3 °C 1000.9 hPa Calm   3.2 km/h 89% 0 mm
15:35 0.3 °C -1.3 °C 1000.9 hPa Calm   3.2 km/h 89% 0 mm
15:45 0.3 °C -1.3 °C 1000.6 hPa Calm   4.8 km/h 89% 0 mm
15:50 0.3 °C -1.1 °C 1000.6 hPa Calm   3.2 km/h 90% 0 mm
15:55 0.3 °C -1.1 °C 1000.2 hPa Calm   4.8 km/h 90% 0 mm
16:00 0.3 °C -1.1 °C 1000.2 hPa Calm   4.8 km/h 90% 0 mm
16:05 0.4 °C -1.1 °C 999.9 hPa Calm   1.6 km/h 90% 0 mm
16:10 0.4 °C -1.1 °C 999.9 hPa Calm   3.2 km/h 90% 0 mm
16:20 0.4 °C -1.1 °C 999.5 hPa Calm     90% 0 mm
16:25 0.4 °C -1 °C 999.5 hPa SSW 1.6 km/h 3.2 km/h 90% 0 mm
17:55 0.7 °C -0.3 °C 997.2 hPa SSW 8 km/h 17.7 km/h 93% 0 mm
18:00 0.8 °C -0.2 °C 996.8 hPa SSW 8 km/h 20.9 km/h 93% 0 mm
18:10 0.8 °C -0.2 °C 996.5 hPa South 8 km/h 16.1 km/h 93% 0 mm
18:15 0.8 °C -0.2 °C 996.5 hPa SSW 8 km/h 19.3 km/h 93% 0 mm
18:20 0.9 °C -0.1 °C 996.5 hPa SSW 11.3 km/h 20.9 km/h 93% 0 mm
18:25 0.9 °C -0.1 °C 996.5 hPa South 8 km/h 20.9 km/h 93% 0 mm
18:30 0.9 °C -0.1 °C 996.5 hPa South 9.7 km/h 20.9 km/h 93% 0 mm
18:35 0.9 °C -0.1 °C 996.5 hPa South 3.2 km/h 20.9 km/h 93% 0 mm
18:45 1 °C 0 °C 995.8 hPa South 8 km/h 16.1 km/h 93% 0 mm
18:50 1.2 °C 0.2 °C 995.8 hPa SSW 8 km/h 20.9 km/h 93% 0 mm
18:55 1.3 °C 0.3 °C 995.8 hPa SSW 11.3 km/h 25.7 km/h 93% 0 mm
19:05 1.4 °C 0.4 °C 995.5 hPa SSW 11.3 km/h 32.2 km/h 93% 0 mm
19:10 1.4 °C 0.4 °C 995.5 hPa SSW 8 km/h 27.4 km/h 93% 0 mm
19:15 1.5 °C 0.5 °C 995.5 hPa SSW 12.9 km/h 27.4 km/h 93% 0 mm
19:20 1.6 °C 0.6 °C 995.5 hPa SSW 12.9 km/h 27.4 km/h 93% 0 mm
19:25 1.7 °C 0.7 °C 995.1 hPa SSW 11.3 km/h 25.7 km/h 93% 0 mm
19:35 1.7 °C 0.7 °C 995.1 hPa SSW 16.1 km/h 29 km/h 93% 0 mm
19:45 1.7 °C 0.7 °C 994.5 hPa South 12.9 km/h 25.7 km/h 93% 0 mm
19:50 1.7 °C 0.7 °C 994.1 hPa SSW 16.1 km/h 33.8 km/h 93% 0 mm
20:00 1.8 °C 0.8 °C 993.8 hPa South 16.1 km/h 29 km/h 93% 0 mm
20:05 1.8 °C 0.8 °C 993.8 hPa SSW 11.3 km/h 29 km/h 93% 0 mm
20:10 1.9 °C 0.9 °C 993.8 hPa SSW 11.3 km/h 29 km/h 93% 0 mm
20:15 2 °C 1 °C 993.5 hPa SSW 12.9 km/h 33.8 km/h 93% 0 mm
20:20 2.1 °C 1.1 °C 993.5 hPa SSW 9.7 km/h 33.8 km/h 93% 0 mm
20:25 2.2 °C 1.2 °C 993.5 hPa SSW 14.5 km/h 24.1 km/h 93% 0 mm
20:30 2.4 °C 1.5 °C 993.1 hPa SSW 14.5 km/h 27.4 km/h 94% 0 mm
20:35 2.6 °C 1.7 °C 993.1 hPa SSW 16.1 km/h 29 km/h 94% 0 mm
20:40 2.7 °C 1.8 °C 992.8 hPa SSW 16.1 km/h 32.2 km/h 94% 0 mm
20:50 2.9 °C 2 °C 992.4 hPa SSW 12.9 km/h 29 km/h 94% 0 mm
21:00 3.3 °C 2.4 °C 992.1 hPa SSW 16.1 km/h 29 km/h 94% 0 mm
21:05 3.3 °C 2.4 °C 992.4 hPa SW 8 km/h 29 km/h 94% 0 mm
21:10 3.4 °C 2.6 °C 992.1 hPa SSW 9.7 km/h 22.5 km/h 94% 0 mm
21:15 3.8 °C 2.9 °C 991.8 hPa SSW 17.7 km/h 37 km/h 94% 0 mm
21:20 3.9 °C 3.1 °C 991.8 hPa SSW 14.5 km/h 37 km/h 94% 0 mm
21:25 4.1 °C 3 °C 991.8 hPa SSW 14.5 km/h 32.2 km/h 93% 0 mm
21:30 4.1 °C 3.1 °C 991.8 hPa SSW 17.7 km/h 35.4 km/h 93% 0 mm
21:35 4.1 °C 3.1 °C 991.4 hPa SSW 19.3 km/h 35.4 km/h 93% 0 mm
21:40 4.2 °C 3 °C 991.1 hPa SSW 19.3 km/h 37 km/h 92% 0 mm
21:45 4.2 °C 2.8 °C 991.1 hPa SSW 17.7 km/h 37 km/h 91% 0 mm
21:50 4.2 °C 2.8 °C 990.7 hPa SSW 14.5 km/h 35.4 km/h 91% 0 mm
22:00 4.1 °C 2.8 °C 990.7 hPa SSW 12.9 km/h 38.6 km/h 91% 0 mm
22:05 4.2 °C 2.8 °C 990.4 hPa SSW 24.1 km/h 43.5 km/h 91% 0 mm
22:10 4.2 °C 2.9 °C 990.4 hPa SSW 22.5 km/h 43.5 km/h 91% 0 mm
22:15 4.2 °C 2.7 °C 990.1 hPa SSW 16.1 km/h 37 km/h 90% 0 mm
22:20 4.2 °C 2.7 °C 990.1 hPa SSW 16.1 km/h 40.2 km/h 90% 0 mm
22:25 4.3 °C 2.8 °C 990.1 hPa SSW 17.7 km/h 40.2 km/h 90% 0 mm
22:30 4.3 °C 2.8 °C 990.1 hPa SSW 14.5 km/h 40.2 km/h 90% 0 mm
22:40 4.5 °C 3 °C 989.7 hPa SSW 12.9 km/h 33.8 km/h 90% 0 mm
22:50 4.6 °C 2.9 °C 989.4 hPa SSW 12.9 km/h 32.2 km/h 89% 0 mm
22:55 4.6 °C 2.9 °C 989.4 hPa SSW 12.9 km/h 29 km/h 89% 0 mm
23:00 4.7 °C 3 °C 989.4 hPa SSW 12.9 km/h 30.6 km/h 89% 0 mm
23:10 4.8 °C 3.2 °C 989.4 hPa SW 17.7 km/h 33.8 km/h 89% 0 mm
23:15 4.8 °C 3.1 °C 989.4 hPa SW 14.5 km/h 33.8 km/h 89% 0 mm
23:20 4.8 °C 3.2 °C 989.1 hPa SSW 17.7 km/h 32.2 km/h 89% 0 mm
23:25 4.8 °C 3.2 °C 989.1 hPa SSW 17.7 km/h 32.2 km/h 89% 0 mm
23:35 4.8 °C 3.1 °C 989.4 hPa SW 12.9 km/h 40.2 km/h 89% 0 mm
23:40 4.8 °C 3.1 °C 989.4 hPa SSW 14.5 km/h 40.2 km/h 89% 0 mm
23:50 4.6 °C 3.1 °C 989.4 hPa SSW 12.9 km/h 37 km/h 90% 0 mm
Westford Weather
Compliments of Weather Underground

 
 
Current Radar Loop:

Copyright © WestfordWeather.net 2007-2014. All rights reserved.